Home > Time Zones > World Clock > Weather > Iran > Kerman > Past weeks

Flag for Iran Weather past 2 weeks in Kerman, Iran

Now
59 °F

Partly cloudy.


Feels Like: 56 °F
Forecast: 45 / 73 °F
Wind: 18 mph from Southwest

Location: Kerman Airport

Current Time: Apr 2, 2015 at 6:06:32 AM

Latest Report: Apr 2, 2015 at 5:30 AM


Visibility: N/A

Pressure: 29.86 "Hg

Humidity: 45%

Dew point: 37 °F

Location of KermanLocation

Historic Weather in Kerman — Graph

°F

Kerman temperature yesterday

Maximum temperature yesterday: 72 °F (at 1:30 PM)
Minimum temperature yesterday: 57 °F (at 7:30 AM)
Average temperature yesterday: 64 °F

Past Weeks' High & Low Weather Summary

 TemperatureHumidityPressure
High77 °F (Mar 29, 5:30 PM)100% (Mar 22, 4:30 AM)30.30 "Hg (Mar 22, 4:30 AM)
Low37 °F (Mar 29, 6:30 AM)4% (Mar 29, 4:30 PM)29.86 "Hg (Apr 2, 3:30 AM)
Average58 °F53%30.14 "Hg
* Reported Mar 18 3:30 AM — Apr 2 4:30 AM, Kerman, Weather by CustomWeather, © 2015

Note: Actual official high and low records may vary slightly from our data, if they occured in-between our weather recording intervals... More about our weather records

Advertising

Kerman weather history for previous 24 hours

 ConditionsComfort  
Time TempWeatherWind HumidityBarometerVisibility
4:30 AM
Thu, Apr 2
59 °FPartly cloudy.18 mph51%29.86 "HgN/A
3:30 AM54 °FPartly cloudy.7 mph72%29.86 "HgN/A
2:20 AM55 °FPartly cloudy.9 mph63%29.89 "HgN/A
1:30 AM55 °FLight rain. Partly cloudy.9 mph59%29.92 "Hg5 mi
12:30 AM55 °FLight rain. Partly cloudy.No wind55%29.95 "Hg5 mi
11:20 PM
Wed, Apr 1
57 °FPartly cloudy.7 mph48%29.95 "HgN/A
10:30 PM57 °FPartly cloudy.5 mph48%29.98 "HgN/A
9:30 PM59 °FPartly cloudy.12 mph45%29.98 "HgN/A
8:30 PM63 °FPartly cloudy.12 mph32%29.95 "HgN/A
7:30 PM63 °FBroken clouds.23 mph32%29.98 "HgN/A
6:30 PM64 °FBroken clouds.21 mph28%29.95 "HgN/A
5:30 PM68 °FCloudy.35 mph18%29.95 "HgN/A
4:30 PM70 °FCloudy.12 mph15%29.95 "HgN/A
3:30 PM70 °FSunny.9 mph16%29.95 "Hg10 mi
2:30 PM70 °FBroken clouds.12 mph17%29.95 "HgN/A
1:30 PM72 °FSunny.9 mph19%29.98 "Hg10 mi
12:30 PM70 °FSunny.7 mph18%30.01 "Hg10 mi
11:30 AM68 °FSunny.9 mph24%30.01 "Hg10 mi
10:30 AM66 °FSunny.9 mph24%30.04 "Hg10 mi
9:30 AM64 °FPartly sunny.5 mph30%30.04 "HgN/A
8:30 AM59 °FPartly sunny.7 mph39%30.01 "HgN/A
7:30 AM57 °FPassing clouds.7 mph41%30.01 "Hg5 mi
6:30 AM59 °FPassing clouds.12 mph39%29.98 "Hg4 mi
Weather by CustomWeather, © 2015

See weather overviewHow to use our weather pages